Location: Melbourne
(37.8170°S, 144.9670°E)
Time: 09:09:53
(UTC+10:00)

Transit 2A - All Passes

Search period start: 30 June 2015 00:00
Search period end: 10 July 2015 00:00
Orbit: 595 x 966 km, 66.7° (Epoch: 29 June)

Date Brightness Start Highest point End Pass type
(mag) Time Alt. Az. Time Alt. Az. Time Alt. Az.
30 Jun - 01:53:52 10° NE 01:55:22 12° ENE 01:57:10 10° E night (unlit)
30 Jun - 03:33:45 10° NW 03:38:00 55° WSW 03:42:32 10° SSE night (unlit)
30 Jun - 10:39:33 10° SSE 10:42:04 13° SE 10:44:56 10° ESE daylight
30 Jun - 12:20:33 10° SSW 12:26:11 76° ESE 12:32:20 10° NNE daylight
30 Jun - 14:05:40 10° WSW 14:09:05 15° WNW 14:12:18 10° NW daylight
01 Jul - 02:59:49 10° NNW 03:04:10 87° WSW 03:08:47 10° SSE night (unlit)
01 Jul - 04:47:13 10° SW 04:48:17 11° SW 04:49:08 10° SSW night (unlit)
01 Jul - 11:46:49 10° SSW 11:52:19 53° ESE 11:58:18 10° NE daylight
01 Jul - 13:30:51 10° WSW 13:35:22 23° WNW 13:39:55 10° NNW daylight
02 Jul - 02:26:09 10° NNW 02:30:23 58° ENE 02:34:53 10° SE night (unlit)
02 Jul - 04:11:24 10° W 04:14:06 15° SW 04:16:46 10° S night (unlit)
02 Jul - 11:13:12 10° SSW 11:18:24 38° SE 11:24:03 10° ENE daylight
02 Jul - 12:56:30 10° SW 13:01:37 33° WNW 13:07:00 10° N daylight
03 Jul - 01:52:43 10° N 01:56:39 35° ENE 02:00:50 10° SE night (unlit)
03 Jul - 03:36:31 10° WNW 03:39:59 22° SW 03:43:34 10° S night (unlit)
03 Jul - 10:39:41 10° S 10:44:24 28° SE 10:49:33 10° ENE daylight
03 Jul - 12:22:21 10° SW 12:27:52 48° WNW 12:33:44 10° N daylight
04 Jul - 01:19:39 10° NNE 01:22:58 22° ENE 01:26:32 10° ESE night (unlit)
04 Jul - 03:02:00 10° WNW 03:05:58 32° SW 03:10:08 10° S night (unlit)
04 Jul - 10:06:18 10° S 10:10:20 20° SE 10:14:46 10° E daylight
04 Jul - 11:48:23 10° SSW 11:54:05 69° WNW 12:00:13 10° NNE daylight
05 Jul - 00:47:10 10° NE 00:49:19 14° ENE 00:51:44 10° ESE night (unlit)
05 Jul - 02:27:47 10° NW 02:32:01 48° WSW 02:36:32 10° SSE night (unlit)
05 Jul - 09:33:11 10° SSE 09:36:12 15° SE 09:39:35 10° E daylight
05 Jul - 11:14:31 10° SSW 11:20:15 84° ESE 11:26:28 10° NNE daylight
05 Jul - 13:00:05 10° WSW 13:03:06 14° WNW 13:05:49 10° NW daylight
06 Jul - 01:53:47 10° NNW 01:58:09 77° WSW 02:02:48 10° SSE night (unlit)
06 Jul - 09:00:50 10° SSE 09:02:00 11° SE 09:03:29 10° SE daylight
06 Jul - 10:40:47 10° SSW 10:46:23 60° ESE 10:52:29 10° NE daylight
06 Jul - 12:25:04 10° WSW 12:29:23 21° WNW 12:33:41 10° NNW daylight
07 Jul - 01:20:03 10° NNW 01:24:20 67° ENE 01:28:57 10° SSE night (unlit)
07 Jul - 03:05:44 10° WSW 03:08:11 14° SW 03:10:34 10° SSW night (unlit)
07 Jul - 10:07:07 10° SSW 10:12:29 42° SE 10:18:18 10° NE daylight
07 Jul - 11:50:37 10° SW 11:55:40 30° WNW 12:00:52 10° NNW daylight
08 Jul - 00:46:32 10° N 00:50:36 41° ENE 00:54:57 10° SE night (unlit)
08 Jul - 02:30:42 10° W 02:34:03 20° SW 02:37:28 10° S night (unlit)
08 Jul - 09:33:34 10° S 09:38:30 31° SE 09:43:53 10° ENE daylight
08 Jul - 11:16:26 10° SW 11:21:54 43° WNW 11:27:42 10° N daylight
09 Jul - 00:13:21 10° NNE 00:16:54 26° ENE 00:20:44 10° SE night (unlit)
09 Jul - 01:56:07 10° WNW 02:00:00 28° SW 02:04:04 10° S night (unlit)
09 Jul - 09:00:08 10° S 09:04:27 23° SE 09:09:12 10° E daylight
09 Jul - 10:42:24 10° SW 10:48:08 62° WNW 10:54:15 10° NNE daylight
09 Jul - 23:40:38 10° NE 23:43:15 16° ENE 23:46:07 10° ESE night (unlit)
